Location: Biltmore Gardens
(41.6070°N, 83.4666°W)
Time: 14:23:32
(UTC+00:00)

CZ-2D R/B - Pass Details

Date: 14 July 2020
Orbit: 553 x 638 km, 97.9° (Epoch: 04 August)

Event Time Altitude Azimuth Distance (km) Brightness Sun altitude
Rises 09:05:22 0° 7° (N) 2,925 7.8 -10.9°
Reaches altitude 10° 09:07:38 10° 2° (N) 2,003 6.8 -10.6°
Maximum altitude 09:11:50 49° 288° (WNW) 796 3.9 -10.0°
Enters shadow 09:15:39 12° 214° (SW) 1,838 5.4 -9.5°
